Flag for Italy Weather past 2 weeks in Palermo, Italy

Now
82 °F

Sunny.


Feels Like: 87 °F
Forecast: 77 / 86 °F
Wind: 3 mph from South

Location: Palermo / Punta Raisi

Current Time: Aug 5, 2015 at 9:01:24 AM

Latest Report: Aug 5, 2015 at 7:50 AM


Visibility: 10 mi

Pressure: 29.95 "Hg

Humidity: 70%

Dew point: 72 °F

Location of PalermoLocation

Historic Weather in Palermo — Graph

°F

Palermo temperature yesterday

Maximum temperature yesterday: 86 °F (at 10:50 AM)
Minimum temperature yesterday: 81 °F (at 1:20 AM)
Average temperature yesterday: 84 °F

Past Weeks' High & Low Weather Summary

 TemperatureHumidityPressure
High100 °F (Aug 2, 3:50 PM)89% (Jul 31, 10:50 PM)29.98 "Hg (Jul 31, 10:50 PM)
Low75 °F (Jul 22, 3:50 AM)24% (Aug 2, 3:50 PM)29.77 "Hg (Jul 31, 3:50 AM)
Average84 °F70%29.89 "Hg
* Reported Jul 21 7:20 AM — Aug 5 7:50 AM, Palermo, Weather by CustomWeather, © 2015

Note: Actual official high and low records may vary slightly from our data, if they occured in-between our weather recording intervals... More about our weather records

Advertising

Palermo weather history for previous 24 hours

 ConditionsComfort  
Time TempWeatherWind HumidityBarometerVisibility
7:50 AM
Wed, Aug 5
82 °FSunny.3 mph70%29.95 "Hg10 mi
7:20 AM81 °FSunny.3 mph70%29.95 "Hg10 mi
6:50 AM77 °FPassing clouds.5 mph79%29.95 "HgN/A
6:20 AM77 °FPassing clouds.1 mph74%29.95 "HgN/A
5:50 AM77 °FClear.2 mph74%29.95 "Hg10 mi
4:50 AM79 °FClear.5 mph79%29.95 "Hg10 mi
4:20 AM79 °FClear.3 mph74%29.95 "Hg10 mi
3:50 AM79 °FPassing clouds.3 mph79%29.95 "HgN/A
3:20 AM81 °FClear.6 mph74%29.95 "Hg10 mi
2:50 AM81 °FClear.7 mph74%29.95 "Hg10 mi
2:20 AM79 °FClear.5 mph74%29.95 "Hg10 mi
1:20 AM79 °FClear.2 mph74%29.95 "Hg10 mi
12:50 AM81 °FClear.2 mph74%29.95 "Hg10 mi
12:20 AM81 °FPassing clouds.3 mph74%29.95 "HgN/A
11:50 PM
Tue, Aug 4
82 °FClear.5 mph70%29.95 "Hg10 mi
11:20 PM82 °FClear.3 mph70%29.95 "Hg10 mi
10:50 PM82 °FClear.3 mph70%29.95 "Hg10 mi
10:20 PM82 °FClear.6 mph70%29.95 "Hg10 mi
9:50 PM82 °FClear.5 mph70%29.95 "Hg10 mi
9:20 PM82 °FClear.6 mph70%29.95 "Hg10 mi
8:50 PM84 °FSunny.5 mph66%29.95 "Hg10 mi
8:20 PM84 °FSunny.5 mph66%29.95 "Hg10 mi
7:50 PM84 °FSunny.6 mph66%29.95 "Hg10 mi
7:20 PM84 °FSunny.6 mph66%29.95 "Hg10 mi
6:50 PM84 °FSunny.8 mph66%29.95 "Hg10 mi
6:20 PM84 °FSunny.9 mph66%29.95 "Hg10 mi
5:50 PM86 °FSunny.9 mph62%29.95 "Hg10 mi
5:20 PM86 °FSunny.9 mph62%29.95 "Hg10 mi
4:50 PM86 °FPassing clouds.9 mph62%29.95 "HgN/A
4:20 PM86 °FPassing clouds.10 mph62%29.95 "HgN/A
3:50 PM86 °FPassing clouds.10 mph62%29.95 "HgN/A
3:20 PM86 °FSunny.9 mph62%29.95 "Hg10 mi
2:50 PM86 °FPassing clouds.9 mph59%29.95 "HgN/A
2:20 PM86 °FPassing clouds.9 mph62%29.98 "HgN/A
1:50 PM86 °FPassing clouds.9 mph59%29.95 "HgN/A
1:20 PM86 °FPassing clouds.8 mph62%29.95 "HgN/A
12:50 PM86 °FPassing clouds.9 mph66%29.98 "HgN/A
12:20 PM86 °FPassing clouds.9 mph66%29.98 "HgN/A
11:50 AM86 °FPassing clouds.9 mph62%29.98 "HgN/A
11:20 AM86 °FPassing clouds.9 mph62%29.98 "HgN/A
10:50 AM86 °FPassing clouds.8 mph62%29.98 "HgN/A
10:20 AM84 °FPassing clouds.8 mph66%29.95 "HgN/A
9:50 AM84 °FScattered clouds.8 mph66%29.95 "HgN/A
9:20 AM84 °FScattered clouds.7 mph70%29.95 "HgN/A
Weather by CustomWeather, © 2015

See weather overviewHow to use our weather pages